Weather Roundup
Issued by NWS Springfield, MO

Home | Current Version | Previous Version | Text Only | Print | Product List | Glossary On
Versions: 1 2 3 4 5 6 7 8 9 10 11 12 13 14 15 16 17 18 19 20 21 22 23 24 25 26 27 28 29 30 31 32 33 34 35 36 37 38 39 40 41 42 43 44 45 46 47 48 49 50
000
NZUS99 KSGF 191357
HRRSGF

HOURLY WEATHER
NATIONAL WEATHER SERVICE SPRINGFIELD MO
900 AM CDT THU APR 19 2018

......SGF CWA......

CITY           SKY/WX    TMP DP  RH WIND       PRES   REMARKS
SPRINGFIELD    CLOUDY    40  29  64 N17       30.35R WCI  31
JOPLIN         SUNNY     43  33  68 N10       30.39R
WEST PLAINS    CLOUDY    43  27  53 NW12      30.32R
ROLLA          CLOUDY    36  27  69 NW14      30.35R WCI  27
BRANSON        PTSUNNY   39  28  65 N12       30.34R WCI  32

......SURROUNDING SGF CWA......

CITY           SKY/WX    TMP DP  RH WIND       PRES   REMARKS
CHANUTE        CLOUDY    41  31  67 N13       30.42R
PARSONS        MOSUNNY   43  33  68 N9        30.42R
COFFEYVILLE    MOSUNNY   44  32  62 N13       30.41R
EMPORIA        SUNNY     38  29  70 N12       30.43R WCI  30
HARRISON AR    CLOUDY    41  28  60 N13G22    30.33R

......KANSAS AND MISSOURI......

CITY           SKY/WX    TMP DP  RH WIND       PRES   REMARKS
KANSAS CTY INT SUNNY     39  30  70 N9        30.42R WCI  33
SEDALIA        SUNNY     39  30  70 N12       30.40R WCI  32
ST JOSEPH      SUNNY     38  31  76 N12       30.44R WCI  30
ST LOUIS       CLOUDY    39  29  67 N13       30.34R WCI  31
KIRKSVILLE     MOSUNNY   38  33  82 N10       30.39R WCI  31
WICHITA        MOSUNNY   42  32  67 N14       30.44R
TOPEKA         SUNNY     40  32  73 N10       30.44R WCI  33
OLATHE         MOSUNNY   38  29  70 N8        30.42R WCI  32

......TENNESSEE......

CITY           SKY/WX    TMP DP  RH WIND       PRES   REMARKS
MEMPHIS        NOT AVBL
NASHVILLE      CLOUDY    43  26  51 NW12      30.22R

......ARKANSAS.......

CITY           SKY/WX    TMP DP  RH WIND       PRES   REMARKS
FAYETTEVILLE   MOSUNNY   42  29  59 N9G20     30.37R
FT SMITH       SUNNY     48  29  47 NW7       30.39R
LITTLE ROCK    SUNNY     49  27  42 N15       30.33R

......OKLAHOMA.......

CITY           SKY/WX    TMP DP  RH WIND       PRES   REMARKS
TULSA          MOSUNNY   48  31  51 N10       30.42R
PONCA CITY     MOSUNNY   47  30  51 N16       30.44R
MCALESTER      SUNNY     47  29  49 NE15      30.41R
OKLAHOMA CITY  MOSUNNY   47  28  47 NE12      30.42R

......IOWA............

CITY           SKY/WX    TMP DP  RH WIND       PRES   REMARKS
DES MOINES     NOT AVBL
QUAD CITIES    FAIR      38  28  67 N13       30.35R WCI  30

......ILLINOIS........

CITY           SKY/WX    TMP DP  RH WIND       PRES   REMARKS
QUINCY         SUNNY     40  31  70 N10       30.35R WCI  33
CHICAGO        FAIR      36  27  69 N12       30.27R WCI  28





USA.gov is the U.S. government's official web portal to all federal, state and local government web resources and services.